| time (UTC) | temp C | wind direction | speed KPH | gust KPH | rain 1hr cm | rain 24hr cm | rain mn cm | humidity % | barometer mb |
| 20260504012322 | 6 | 102 | 0.0 | 0.0 | 0.00 | 0.58 | 0.58 | 67 | 1012.4 |
| 20260504011819 | 6 | 102 | 0.0 | 0.0 | 0.00 | 0.58 | 0.58 | 68 | 1012.4 |
| 20260504011316 | 6 | 102 | 0.0 | 0.0 | 0.00 | 0.58 | 0.58 | 64 | 1012.2 |
| 20260504010811 | 6 | 102 | 0.0 | 0.0 | 0.00 | 0.58 | 0.58 | 63 | 1012.3 |
| 20260504010307 | 6 | 102 | 0.0 | 0.0 | 0.00 | 0.58 | 0.58 | 63 | 1012.2 |
| 20260504005804 | 7 | 102 | 0.0 | 0.0 | 0.00 | 0.58 | 0.58 | 61 | 1012.1 |
| 20260504005301 | 7 | 102 | 0.0 | 0.0 | 0.00 | 0.58 | 0.58 | 61 | 1012.1 |
| 20260504004759 | 7 | 102 | 0.0 | 0.0 | 0.00 | 0.58 | 0.58 | 58 | 1012.0 |
| 20260504004256 | 7 | 102 | 0.0 | 0.0 | 0.00 | 0.58 | 0.58 | 58 | 1011.9 |
| 20260504003752 | 8 | 102 | 0.0 | 0.0 | 0.00 | 0.58 | 0.58 | 56 | 1011.8 |
| 20260504003249 | 8 | 102 | 0.0 | 0.0 | 0.00 | 0.58 | 0.58 | 53 | 1011.5 |
| 20260504002746 | 8 | 101 | 0.0 | 1.6 | 0.00 | 0.58 | 0.58 | 49 | 1011.5 |
| 20260504002243 | 9 | 114 | 0.0 | 1.6 | 0.00 | 0.58 | 0.58 | 49 | 1011.4 |
| 20260504001741 | 10 | 113 | 0.0 | 1.6 | 0.00 | 0.58 | 0.58 | 47 | 1011.5 |
| 20260504001237 | 10 | 126 | 0.0 | 1.6 | 0.00 | 0.58 | 0.58 | 47 | 1011.5 |
| 20260504000734 | 10 | 254 | 4.8 | 6.4 | 0.00 | 0.58 | 0.58 | 44 | 1011.1 |
| 20260504000233 | 10 | 197 | 3.2 | 3.2 | 0.00 | 0.58 | 0.58 | 46 | 1011.1 |
| 20260503235729 | 10 | 50 | 1.6 | 3.2 | 0.00 | 0.58 | 0.58 | 44 | 1011.2 |
| 20260503235226 | 10 | 129 | 0.0 | 3.2 | 0.00 | 0.58 | 0.58 | 45 | 1011.1 |
| 20260503234724 | 10 | 139 | 0.0 | 1.6 | 0.00 | 0.58 | 0.58 | 46 | 1011.0 |
| 20260503234222 | 10 | 112 | 0.0 | 3.2 | 0.00 | 0.58 | 0.58 | 45 | 1010.9 |
| 20260503233718 | 11 | 147 | 3.2 | 4.8 | 0.00 | 0.58 | 0.58 | 43 | 1010.8 |
| 20260503233214 | 11 | 226 | 3.2 | 4.8 | 0.00 | 0.58 | 0.58 | 44 | 1010.5 |
| 20260503232711 | 11 | 313 | 3.2 | 6.4 | 0.00 | 0.58 | 0.58 | 43 | 1010.6 |
| 20260503232208 | 11 | 220 | 4.8 | 6.4 | 0.00 | 0.58 | 0.58 | 44 | 1010.3 |
| 20260503231707 | 11 | 102 | 1.6 | 3.2 | 0.00 | 0.58 | 0.58 | 44 | 1010.3 |
| 20260503231203 | 11 | 289 | 4.8 | 9.7 | 0.00 | 0.58 | 0.58 | 44 | 1010.2 |
| 20260503230659 | 11 | 208 | 6.4 | 9.7 | 0.00 | 0.58 | 0.58 | 45 | 1010.0 |
| 20260503230156 | 11 | 248 | 3.2 | 4.8 | 0.00 | 0.58 | 0.58 | 45 | 1009.9 |
| 20260503225654 | 11 | 158 | 1.6 | 6.4 | 0.00 | 0.58 | 0.58 | 45 | 1009.9 |
| 20260503225154 | 11 | 258 | 1.6 | 3.2 | 0.00 | 0.58 | 0.58 | 45 | 1009.6 |
| 20260503224651 | 11 | 215 | 1.6 | 4.8 | 0.00 | 0.58 | 0.58 | 45 | 1009.7 |
| 20260503224149 | 11 | 144 | 1.6 | 4.8 | 0.00 | 0.58 | 0.58 | 45 | 1009.7 |
| 20260503223647 | 11 | 57 | 1.6 | 4.8 | 0.00 | 0.58 | 0.58 | 43 | 1009.6 |
| 20260503223143 | 11 | 259 | 1.6 | 6.4 | 0.00 | 0.58 | 0.58 | 43 | 1009.4 |
| 20260503222640 | 11 | 34 | 1.6 | 3.2 | 0.00 | 0.58 | 0.58 | 43 | 1009.4 |
| 20260503222138 | 11 | 231 | 3.2 | 4.8 | 0.00 | 0.58 | 0.58 | 41 | 1009.6 |
| 20260503221636 | 11 | 262 | 1.6 | 4.8 | 0.00 | 0.58 | 0.58 | 44 | 1009.3 |
| 20260503221133 | 11 | 260 | 1.6 | 3.2 | 0.00 | 0.58 | 0.58 | 43 | 1009.2 |
| 20260503220630 | 11 | 129 | 0.0 | 4.8 | 0.00 | 0.58 | 0.58 | 47 | 1009.2 |
| 20260503220126 | 11 | 250 | 9.7 | 12.9 | 0.00 | 0.58 | 0.58 | 43 | 1008.9 |
| 20260503215624 | 12 | 52 | 1.6 | 1.6 | 0.00 | 0.58 | 0.58 | 45 | 1008.9 |
| 20260503215120 | 12 | 236 | 3.2 | 4.8 | 0.00 | 0.58 | 0.58 | 45 | 1008.8 |
| 20260503214619 | 12 | 270 | 3.2 | 4.8 | 0.00 | 0.58 | 0.58 | 46 | 1008.8 |
| 20260503214115 | 12 | 121 | 0.0 | 4.8 | 0.00 | 0.58 | 0.58 | 46 | 1008.8 |
| 20260503213614 | 12 | 72 | 3.2 | 3.2 | 0.00 | 0.58 | 0.58 | 46 | 1008.9 |
| 20260503213110 | 11 | 160 | 1.6 | 3.2 | 0.00 | 0.58 | 0.58 | 47 | 1008.8 |
| 20260503212608 | 11 | 175 | 1.6 | 1.6 | 0.00 | 0.58 | 0.58 | 47 | 1008.6 |
| 20260503212105 | 11 | 4 | 3.2 | 4.8 | 0.00 | 0.58 | 0.58 | 46 | 1008.5 |
| 20260503211602 | 11 | 241 | 4.8 | 9.7 | 0.00 | 0.58 | 0.58 | 46 | 1008.5 |
| 20260503211057 | 11 | 92 | 1.6 | 6.4 | 0.00 | 0.58 | 0.58 | 46 | 1008.5 |
| 20260503210554 | 12 | 11 | 3.2 | 4.8 | 0.00 | 0.58 | 0.58 | 45 | 1008.4 |
| 20260503210050 | 12 | 113 | 0.0 | 6.4 | 0.00 | 0.58 | 0.58 | 48 | 1008.4 |
| 20260503205547 | 12 | 47 | 0.0 | 3.2 | 0.00 | 0.58 | 0.58 | 47 | 1008.3 |
| 20260503205043 | 11 | 352 | 1.6 | 3.2 | 0.00 | 0.58 | 0.58 | 47 | 1008.4 |
| 20260503204540 | 11 | 78 | 1.6 | 4.8 | 0.00 | 0.58 | 0.58 | 50 | 1008.3 |
| 20260503204038 | 11 | 143 | 0.0 | 4.8 | 0.00 | 0.58 | 0.58 | 49 | 1008.3 |
| 20260503203535 | 11 | 131 | 1.6 | 4.8 | 0.00 | 0.58 | 0.58 | 52 | 1008.2 |
| 20260503203032 | 11 | 301 | 3.2 | 6.4 | 0.00 | 0.58 | 0.58 | 50 | 1008.2 |
| 20260503202530 | 11 | 266 | 3.2 | 6.4 | 0.00 | 0.58 | 0.58 | 49 | 1008.0 |
| 20260503202027 | 11 | 52 | 0.0 | 4.8 | 0.00 | 0.58 | 0.58 | 50 | 1007.8 |
| 20260503201525 | 11 | 36 | 3.2 | 9.7 | 0.00 | 0.58 | 0.58 | 51 | 1008.0 |
| 20260503201022 | 12 | 167 | 6.4 | 9.7 | 0.00 | 0.58 | 0.58 | 47 | 1007.9 |
| 20260503200518 | 13 | 169 | 4.8 | 9.7 | 0.00 | 0.58 | 0.58 | 47 | 1007.8 |
| 20260503200015 | 13 | 159 | 3.2 | 6.4 | 0.00 | 0.58 | 0.58 | 49 | 1007.7 |
| 20260503195513 | 12 | 33 | 6.4 | 9.7 | 0.00 | 0.58 | 0.58 | 48 | 1007.7 |
| 20260503195009 | 12 | 129 | 3.2 | 6.4 | 0.00 | 0.58 | 0.58 | 50 | 1007.7 |
| 20260503194507 | 11 | 54 | 6.4 | 11.3 | 0.00 | 0.58 | 0.58 | 51 | 1007.7 |
| 20260503194006 | 11 | 80 | 3.2 | 4.8 | 0.00 | 0.58 | 0.58 | 52 | 1007.8 |
| 20260503193503 | 11 | 63 | 3.2 | 6.4 | 0.00 | 0.58 | 0.58 | 51 | 1007.9 |
| 20260503192958 | 11 | 36 | 3.2 | 3.2 | 0.00 | 0.58 | 0.58 | 52 | 1007.7 |
| 20260503192455 | 12 | 37 | 9.7 | 12.9 | 0.00 | 0.58 | 0.58 | 50 | 1007.8 |
| 20260503191950 | 12 | 273 | 4.8 | 6.4 | 0.00 | 0.58 | 0.58 | 50 | 1007.6 |
| 20260503191448 | 12 | 250 | 3.2 | 4.8 | 0.00 | 0.58 | 0.58 | 53 | 1007.8 |
| 20260503190944 | 12 | 191 | 3.2 | 4.8 | 0.00 | 0.58 | 0.58 | 51 | 1007.7 |
| 20260503190442 | 11 | 229 | 3.2 | 4.8 | 0.00 | 0.58 | 0.58 | 52 | 1007.8 |
| 20260503185939 | 11 | 121 | 4.8 | 6.4 | 0.00 | 0.58 | 0.58 | 54 | 1007.8 |
| 20260503185435 | 11 | 24 | 4.8 | 11.3 | 0.00 | 0.58 | 0.58 | 52 | 1007.9 |
| 20260503184934 | 11 | 260 | 6.4 | 6.4 | 0.00 | 0.58 | 0.58 | 53 | 1008.0 |
| 20260503184431 | 11 | 242 | 3.2 | 6.4 | 0.00 | 0.58 | 0.58 | 55 | 1007.8 |
| 20260503183927 | 12 | 93 | 0.0 | 4.8 | 0.00 | 0.58 | 0.58 | 53 | 1008.0 |
| 20260503183424 | 11 | 80 | 3.2 | 6.4 | 0.00 | 0.58 | 0.58 | 54 | 1008.0 |
| 20260503182921 | 11 | 348 | 8.0 | 11.3 | 0.00 | 0.58 | 0.58 | 54 | 1007.9 |
| 20260503182420 | 11 | 28 | 6.4 | 12.9 | 0.00 | 0.58 | 0.58 | 55 | 1007.9 |
| 20260503181917 | 11 | 17 | 11.3 | 16.1 | 0.00 | 0.58 | 0.58 | 56 | 1008.1 |
| 20260503181414 | 11 | 25 | 8.0 | 9.7 | 0.00 | 0.58 | 0.58 | 57 | 1008.2 |
| 20260503180910 | 12 | 101 | 3.2 | 17.7 | 0.00 | 0.58 | 0.58 | 58 | 1007.8 |
| 20260503180408 | 11 | 176 | 9.7 | 17.7 | 0.00 | 0.58 | 0.58 | 58 | 1007.8 |
| 20260503175904 | 11 | 228 | 4.8 | 6.4 | 0.00 | 0.58 | 0.58 | 61 | 1007.8 |
| 20260503175403 | 11 | 304 | 3.2 | 6.4 | 0.00 | 0.58 | 0.58 | 62 | 1007.6 |
| 20260503174858 | 12 | 143 | 1.6 | 16.1 | 0.00 | 0.58 | 0.58 | 60 | 1007.6 |
| 20260503174356 | 12 | 95 | 6.4 | 11.3 | 0.00 | 0.58 | 0.58 | 58 | 1007.7 |
| 20260503173851 | 11 | 82 | 1.6 | 12.9 | 0.00 | 0.58 | 0.58 | 65 | 1007.6 |
| 20260503173348 | 11 | 166 | 4.8 | 9.7 | 0.00 | 0.58 | 0.58 | 66 | 1007.4 |
| 20260503172844 | 11 | 241 | 8.0 | 12.9 | 0.00 | 0.58 | 0.58 | 66 | 1007.6 |
| 20260503172342 | 11 | 28 | 3.2 | 14.5 | 0.00 | 0.58 | 0.58 | 66 | 1007.5 |
| 20260503171838 | 11 | 83 | 3.2 | 9.7 | 0.00 | 0.58 | 0.58 | 68 | 1007.4 |
| 20260503171335 | 11 | 164 | 4.8 | 11.3 | 0.00 | 0.58 | 0.58 | 68 | 1007.6 |
| 20260503170832 | 10 | 26 | 6.4 | 11.3 | 0.00 | 0.58 | 0.58 | 69 | 1007.4 |
| 20260503170328 | 10 | 270 | 3.2 | 12.9 | 0.00 | 0.58 | 0.58 | 68 | 1007.5 |
| 20260503150721 | 11 | 57 | 3.2 | 11.3 | 0.00 | 0.58 | 0.58 | 64 | 1006.8 |
| 20260503150217 | 11 | 285 | 3.2 | 6.4 | 0.00 | 0.58 | 0.58 | 69 | 1006.7 |
| 20260503140141 | 11 | 204 | 3.2 | 4.8 | 0.00 | 0.58 | 0.58 | 69 | 1007.0 |
| 20260503131111 | 8 | 85 | 0.0 | 9.7 | 0.00 | 0.58 | 0.58 | 83 | 1007.2 |
| 20260503130609 | 8 | 32 | 8.0 | 12.9 | 0.00 | 0.58 | 0.58 | 81 | 1007.1 |
| 20260503130106 | 8 | 173 | 1.6 | 6.4 | 0.00 | 0.58 | 0.58 | 84 | 1007.1 |
| 20260503110458 | 6 | 264 | 1.6 | 3.2 | 0.00 | 0.58 | 0.58 | 96 | 1007.7 |
| 20260503090344 | 7 | 46 | 0.0 | 3.2 | 0.13 | 0.56 | 0.56 | 96 | 1008.2 |
| 20260503081312 | 7 | 124 | 0.0 | 3.2 | 0.00 | 0.51 | 0.51 | 98 | 1008.8 |
| 20260503080808 | 7 | 140 | 0.0 | 1.6 | 0.00 | 0.51 | 0.51 | 98 | 1008.9 |
| 20260503080305 | 7 | 39 | 3.2 | 3.2 | 0.00 | 0.51 | 0.51 | 98 | 1008.7 |
| 20260503072742 | 8 | 129 | 0.0 | 3.2 | 0.00 | 0.48 | 0.48 | 99 | 1009.2 |
| 20260503072238 | 8 | 24 | 1.6 | 1.6 | 0.00 | 0.48 | 0.48 | 99 | 1009.0 |
| 20260503071735 | 8 | 131 | 0.0 | 0.0 | 0.00 | 0.48 | 0.48 | 99 | 1009.3 |
| 20260503071232 | 8 | 50 | 1.6 | 4.8 | 0.13 | 0.48 | 0.48 | 99 | 1009.3 |
| 20260503070728 | 8 | 79 | 1.6 | 1.6 | 0.13 | 0.48 | 0.48 | 99 | 1009.4 |
| 20260503070226 | 8 | 71 | 0.0 | 0.0 | 0.00 | 0.46 | 0.46 | 99 | 1009.2 |
| 20260503060157 | 8 | 84 | 0.0 | 0.0 | 0.18 | 0.30 | 0.30 | 99 | 1010.3 |
| 20260503054644 | 8 | 96 | 0.0 | 0.0 | 0.18 | 0.25 | 0.25 | 99 | 1010.3 |
| 20260503054141 | 8 | 77 | 0.0 | 0.0 | 0.13 | 0.23 | 0.23 | 99 | 1010.5 |
| 20260503053639 | 8 | 119 | 0.0 | 0.0 | 0.30 | 0.23 | 0.23 | 99 | 1010.5 |
| 20260503053138 | 8 | 115 | 0.0 | 0.0 | 0.36 | 0.20 | 0.20 | 99 | 1010.8 |
| 20260503052633 | 8 | 117 | 0.0 | 0.0 | 0.18 | 0.18 | 0.18 | 99 | 1010.5 |
| 20260503052130 | 8 | 120 | 0.0 | 0.0 | 0.13 | 0.15 | 0.15 | 99 | 1010.6 |
| 20260503051625 | 8 | 106 | 0.0 | 0.0 | 0.13 | 0.15 | 0.15 | 99 | 1010.6 |
| 20260503051123 | 8 | 137 | 0.0 | 0.0 | 0.00 | 0.13 | 0.13 | 99 | 1010.9 |
| 20260503050620 | 8 | 137 | 0.0 | 0.0 | 0.18 | 0.13 | 0.13 | 99 | 1011.0 |
| 20260503050116 | 8 | 137 | 0.0 | 0.0 | 0.00 | 0.10 | 0.10 | 99 | 1011.0 |
| 20260503045614 | 8 | 137 | 0.0 | 0.0 | 0.00 | 0.10 | 0.10 | 99 | 1011.3 |
| 20260503045111 | 8 | 137 | 0.0 | 0.0 | 0.13 | 0.10 | 0.10 | 99 | 1011.2 |
| 20260503044607 | 8 | 142 | 0.0 | 0.0 | 0.13 | 0.10 | 0.10 | 99 | 1011.4 |
| 20260503044105 | 8 | 135 | 0.0 | 0.0 | 0.00 | 0.08 | 0.08 | 99 | 1011.3 |
| 20260503043601 | 8 | 134 | 0.0 | 0.0 | 0.18 | 0.08 | 0.08 | 99 | 1011.2 |
| 20260503043058 | 8 | 135 | 0.0 | 0.0 | 0.30 | 0.08 | 0.08 | 99 | 1011.4 |
| 20260503042555 | 8 | 135 | 0.0 | 0.0 | 0.13 | 0.05 | 0.05 | 99 | 1011.4 |
| 20260503042051 | 8 | 135 | 0.0 | 0.0 | 0.00 | 0.03 | 0.03 | 99 | 1011.5 |
| 20260503041548 | 8 | 136 | 0.0 | 0.0 | 0.18 | 0.03 | 0.03 | 99 | 1011.6 |
| 20260503041046 | 8 | 80 | 0.0 | 0.0 | 0.18 | 0.03 | 0.03 | 99 | 1011.6 |
| 20260503040543 | 8 | 80 | 0.0 | 0.0 | 0.13 | 0.00 | 0.00 | 99 | 1011.7 |
| 20260503040040 | 8 | 80 | 0.0 | 0.0 | 0.30 | 1.04 | 1.04 | 99 | 1011.6 |
| 20260503035537 | 8 | 80 | 0.0 | 0.0 | 0.30 | 1.02 | 1.02 | 99 | 1011.7 |
| 20260503035034 | 8 | 79 | 0.0 | 0.0 | 0.30 | 0.99 | 0.99 | 99 | 1011.7 |
| 20260503034531 | 9 | 78 | 0.0 | 0.0 | 0.30 | 0.97 | 0.97 | 99 | 1011.6 |
| 20260503034028 | 9 | 61 | 0.0 | 0.0 | 0.30 | 0.94 | 0.94 | 99 | 1011.8 |
| 20260503033526 | 9 | 93 | 0.0 | 0.0 | 0.18 | 0.91 | 0.91 | 99 | 1011.9 |
| 20260503033023 | 9 | 93 | 0.0 | 0.0 | 0.18 | 0.89 | 0.89 | 99 | 1011.9 |
| 20260503032522 | 9 | 93 | 0.0 | 0.0 | 0.30 | 0.89 | 0.89 | 99 | 1011.7 |
| 20260503032019 | 9 | 93 | 0.0 | 0.0 | 0.30 | 0.86 | 0.86 | 99 | 1011.9 |
| 20260503031517 | 9 | 93 | 0.0 | 0.0 | 0.30 | 0.84 | 0.84 | 99 | 1012.0 |
| 20260503031014 | 9 | 91 | 0.0 | 0.0 | 0.13 | 0.81 | 0.81 | 99 | 1011.7 |
| 20260503030510 | 9 | 127 | 0.0 | 0.0 | 0.18 | 0.79 | 0.79 | 99 | 1011.9 |
| 20260503030007 | 9 | 94 | 0.0 | 0.0 | 0.13 | 0.76 | 0.76 | 99 | 1011.9 |
| 20260503025503 | 9 | 109 | 0.0 | 0.0 | 0.30 | 0.76 | 0.76 | 99 | 1011.9 |
| 20260503025001 | 9 | 59 | 1.6 | 1.6 | 0.30 | 0.74 | 0.74 | 99 | 1011.8 |
| 20260503024457 | 9 | 95 | 0.0 | 0.0 | 0.13 | 0.71 | 0.71 | 99 | 1012.1 |
| 20260503023955 | 9 | 96 | 0.0 | 0.0 | 0.00 | 0.69 | 0.69 | 99 | 1012.3 |
| 20260503023451 | 9 | 95 | 0.0 | 0.0 | 0.00 | 0.69 | 0.69 | 99 | 1012.2 |
| 20260503022949 | 9 | 97 | 0.0 | 0.0 | 0.18 | 0.69 | 0.69 | 99 | 1012.3 |
| 20260503022444 | 9 | 97 | 0.0 | 0.0 | 0.18 | 0.69 | 0.69 | 99 | 1012.6 |
| 20260503021940 | 9 | 96 | 0.0 | 0.0 | 0.13 | 0.66 | 0.66 | 99 | 1012.5 |
| 20260503021436 | 9 | 97 | 0.0 | 0.0 | 0.13 | 0.66 | 0.66 | 99 | 1012.6 |
| 20260503020934 | 9 | 96 | 0.0 | 0.0 | 0.18 | 0.64 | 0.64 | 99 | 1012.6 |
| 20260503020432 | 9 | 96 | 0.0 | 0.0 | 0.18 | 0.61 | 0.61 | 99 | 1012.8 |
| 20260503015927 | 9 | 105 | 0.0 | 0.0 | 0.30 | 0.61 | 0.61 | 99 | 1012.8 |
| 20260503015424 | 9 | 105 | 0.0 | 0.0 | 0.43 | 0.58 | 0.58 | 99 | 1013.0 |
| 20260503014920 | 9 | 105 | 0.0 | 0.0 | 0.48 | 0.56 | 0.56 | 99 | 1013.0 |
| 20260503014418 | 9 | 104 | 0.0 | 0.0 | 0.48 | 0.51 | 0.51 | 99 | 1012.9 |
| 20260503013916 | 9 | 105 | 0.0 | 0.0 | 0.43 | 0.48 | 0.48 | 99 | 1013.0 |
| 20260503013412 | 9 | 104 | 0.0 | 0.0 | 0.30 | 0.43 | 0.43 | 99 | 1013.2 |
| 20260503012909 | 9 | 106 | 0.0 | 0.0 | 0.48 | 0.41 | 0.41 | 99 | 1012.9 |